Weather in Arecibo

Puerto Rico     18°28′18″N   66°43′22″W
temp.,
°C
wind,
m/s
gust,
m/s
humid.,
%
clouds,
%
prec.,
mm/h
press.,
hPa
HPBL,
m
17 may, mon
mon1723:00+24ssw45852 0.1 1017131
02:00+23sse22840 0.1 1015109
05:00+23s22822 0.0 101683
08:00+25se22715 0.0 1017262
11:00+29nne44570 0.0 10171101
14:00+29ne55643 0.0 1015628
17:00+27n446738 1.6 1014468
20:00+26e138224 1.9 1015133
18 may, tue
tue1823:00+24se44822 0.0 1017182
02:00+23se34875 0.0 1016182
05:00+22sse34859 0.0 1016129
08:00+25se247185 0.0 1017300
11:00+28ne6664100 0.0 1016913
14:00+28ne886630 0.0 1015642
17:00+28ene456618 1.9 1013741
20:00+26sse257533 2.5 1015104
19 may, wed
wed1923:00+24se338321 0.3 1017162
02:00+23se338593 0.4 1015160
05:00+23sse238477 0.0 1015137
08:00+25se2271100 0.0 1016335
11:00+28nne445998 0.0 10161110
14:00+28nne546599 0.1 1015743
17:00+27n327086 1.5 1014349
20:00+25ne23765 3.0 1016164
20 may, thu
thu2023:00+24sse12815 0.7 1016107
02:00+24ese238199 1.6 1015142
05:00+23se338299 0.0 1015146
08:00+25ese237295 0.0 1016258
11:00+29ne446099 0.0 10161092
14:00+26ene677990 2.7 1015303
17:00+25ne668292 5.6 1015235
20:00+24ne698780 8.3 1017390
21 may, fri
fri2123:00+24ene798698 0.5 1017579
02:00+23e5888100 0.6 1016482
05:00+23ese458842 0.0 1016275
08:00+25ese4679100 0.0 1017425
11:00+28ne566598 0.0 10161174
14:00+27ne7776100 2.7 1015387
17:00+27n557477 2.6 1014530
20:00+25w2381100 3.8 1015127